Crystal Mt.
Crystal Mt. - Green Valley & Campbell Basin
Latest observation 08/31 18:00 PDT
| Time (PDT) | Temp °F 6230' | Temp °F 5940' | RH 6230' | 24Sno in 6230' | SnoHt in 6230' | 24Sno in 5940' | SnoHt in 5940' |
|---|---|---|---|---|---|---|---|
| 08/31 18:00 | – | 63 | – | – | – | 0.2 | 2.1 |
| 08/31 17:00 | – | 66 | – | – | – | 0.0 | 2.0 |
| 08/31 16:00 | – | 66 | – | – | – | 0.0 | 2.4 |
| 08/31 15:00 | – | 66 | – | – | – | -0.0 | 2.2 |
| 08/31 14:00 | – | 66 | – | – | – | 0.0 | 2.3 |
| 08/31 13:00 | – | 64 | – | – | – | 0.0 | 2.3 |
| 08/31 12:00 | – | 60 | – | – | – | 0.2 | 2.6 |
| 08/31 11:00 | – | 60 | – | – | – | 0.4 | 2.3 |
| 08/31 10:00 | – | 57 | – | – | – | 0.2 | 2.6 |
| 08/31 09:00 | – | 57 | – | – | – | 0.1 | 2.5 |
| 08/31 08:00 | – | 54 | – | – | – | 0.2 | 2.3 |
| 08/31 07:00 | – | 51 | – | – | – | 0.2 | 2.6 |
| 08/31 06:00 | – | 53 | – | – | – | 0.4 | 2.5 |
| 08/31 05:00 | – | 55 | – | – | – | 0.4 | 2.5 |
| 08/31 04:00 | – | 54 | – | – | – | 0.2 | 2.7 |
| 08/31 03:00 | – | 54 | – | – | – | 0.2 | 2.8 |
| 08/31 02:00 | – | 53 | – | – | – | 0.4 | 2.5 |
| 08/31 01:00 | – | 53 | – | – | – | 0.4 | 2.7 |
| 08/31 00:00 | – | 52 | – | – | – | 0.4 | 2.6 |
| 08/30 23:00 | – | 48 | – | – | – | 0.2 | 2.5 |
| 08/30 22:00 | – | 44 | – | – | – | 0.4 | 2.6 |
| 08/30 21:00 | – | 44 | – | – | – | 0.4 | 2.7 |
| 08/30 20:00 | – | 43 | – | – | – | 0.2 | 2.5 |
| 08/30 19:00 | – | 44 | – | – | – | 0.2 | 2.4 |

